TimeCST,TemperatureF,Dew PointF,Humidity,Sea Level PressureIn,VisibilityMPH,Wind Direction,Wind SpeedMPH,Gust SpeedMPH,PrecipitationIn,Events,Conditions,WindDirDegrees,DateUTC
12:15 AM,61.7,61.0,97,29.97,7.0,Calm,Calm,-,N/A,,Clear,0,2013-12-02 06:15:00
12:35 AM,61.5,61.0,98,29.97,4.0,Calm,Calm,-,N/A,,Scattered Clouds,0,2013-12-02 06:35:00
12:55 AM,60.6,60.1,98,29.96,1.0,Calm,Calm,-,N/A,,Overcast,0,2013-12-02 06:55:00
1:15 AM,60.3,59.7,98,29.96,3.0,Calm,Calm,-,N/A,,Overcast,0,2013-12-02 07:15:00
1:35 AM,61.5,61.2,99,29.95,10.0,SW,4.6,-,N/A,,Mostly Cloudy,220,2013-12-02 07:35:00
1:55 AM,63.3,62.8,98,29.95,10.0,SW,6.9,-,N/A,,Scattered Clouds,230,2013-12-02 07:55:00
2:15 AM,64.4,63.7,98,29.93,10.0,SW,6.9,-,N/A,,Scattered Clouds,220,2013-12-02 08:15:00
2:35 AM,64.8,63.9,97,29.93,10.0,SW,8.1,-,N/A,,Clear,220,2013-12-02 08:35:00
2:55 AM,65.3,63.7,94,29.92,10.0,SSW,10.4,-,N/A,,Clear,210,2013-12-02 08:55:00
3:15 AM,65.3,63.5,94,29.91,10.0,SSW,10.4,-,N/A,,Clear,210,2013-12-02 09:15:00
3:35 AM,65.5,63.5,93,29.92,10.0,WSW,5.8,-,N/A,,Clear,240,2013-12-02 09:35:00
3:55 AM,64.9,63.1,94,29.92,10.0,WSW,4.6,-,N/A,,Clear,250,2013-12-02 09:55:00
4:15 AM,64.9,63.1,94,29.91,10.0,SW,5.8,-,N/A,,Clear,230,2013-12-02 10:15:00
4:35 AM,64.8,63.1,94,29.90,10.0,SW,5.8,-,N/A,,Clear,230,2013-12-02 10:35:00
4:55 AM,64.6,63.0,94,29.89,10.0,SW,4.6,-,N/A,,Clear,220,2013-12-02 10:55:00
5:15 AM,64.2,62.8,95,29.90,10.0,WSW,4.6,-,N/A,,Clear,250,2013-12-02 11:15:00
5:35 AM,63.7,62.6,96,29.90,10.0,WSW,4.6,-,N/A,,Clear,250,2013-12-02 11:35:00
5:55 AM,63.3,62.2,96,29.89,10.0,Calm,Calm,-,N/A,,Scattered Clouds,0,2013-12-02 11:55:00
6:15 AM,62.8,61.9,97,29.89,7.0,Calm,Calm,-,N/A,,Clear,0,2013-12-02 12:15:00
6:35 AM,62.1,61.3,97,29.89,7.0,Calm,Calm,-,N/A,,Clear,0,2013-12-02 12:35:00
6:55 AM,61.9,61.2,97,29.90,5.0,Calm,Calm,-,N/A,,Clear,0,2013-12-02 12:55:00
7:15 AM,61.7,61.2,98,29.90,3.0,Calm,Calm,-,N/A,,Mostly Cloudy,0,2013-12-02 13:15:00
7:35 AM,61.5,61.0,98,29.89,0.8,SSW,3.5,-,N/A,,Overcast,200,2013-12-02 13:35:00
7:55 AM,61.3,60.8,98,29.90,2.5,Calm,Calm,-,N/A,,Clear,0,2013-12-02 13:55:00
8:15 AM,61.9,61.3,98,29.90,3.0,Calm,Calm,-,N/A,,Clear,0,2013-12-02 14:15:00
8:35 AM,62.6,62.1,98,29.90,4.0,SSW,3.5,-,N/A,,Clear,210,2013-12-02 14:35:00
8:55 AM,63.9,63.3,98,29.90,4.0,SSW,3.5,-,N/A,,Clear,210,2013-12-02 14:55:00
9:15 AM,64.8,64.0,98,29.90,7.0,SW,4.6,-,N/A,,Mostly Cloudy,230,2013-12-02 15:15:00
9:35 AM,65.8,64.4,95,29.90,10.0,SW,8.1,-,N/A,,Scattered Clouds,230,2013-12-02 15:35:00
9:55 AM,66.7,64.8,93,29.91,10.0,SW,9.2,-,N/A,,Mostly Cloudy,230,2013-12-02 15:55:00
10:15 AM,68.0,65.3,91,29.90,10.0,SW,13.8,-,N/A,,Overcast,230,2013-12-02 16:15:00
10:35 AM,69.3,65.8,89,29.90,10.0,SW,12.7,-,N/A,,Mostly Cloudy,220,2013-12-02 16:35:00
10:55 AM,71.4,66.4,84,29.90,10.0,SW,11.5,19.6,N/A,,Scattered Clouds,230,2013-12-02 16:55:00
11:15 AM,72.5,65.5,79,29.89,10.0,SW,15.0,23.0,N/A,,Scattered Clouds,230,2013-12-02 17:15:00
11:35 AM,73.4,65.3,76,29.88,10.0,SW,13.8,-,N/A,,Scattered Clouds,220,2013-12-02 17:35:00
11:55 AM,74.5,65.5,73,29.85,10.0,SSW,12.7,17.3,N/A,,Scattered Clouds,210,2013-12-02 17:55:00
12:15 PM,74.5,65.5,73,29.84,10.0,SSW,11.5,-,N/A,,Clear,210,2013-12-02 18:15:00
12:35 PM,75.0,65.7,73,29.83,10.0,SSW,12.7,16.1,N/A,,Scattered Clouds,200,2013-12-02 18:35:00
12:55 PM,74.3,65.5,74,29.81,10.0,SW,10.4,-,N/A,,Clear,220,2013-12-02 18:55:00
1:15 PM,75.0,65.7,73,29.80,10.0,SSW,13.8,-,N/A,,Clear,210,2013-12-02 19:15:00
1:35 PM,75.2,65.7,72,29.79,10.0,SSW,12.7,-,N/A,,Clear,200,2013-12-02 19:35:00
1:55 PM,75.4,65.7,72,29.78,10.0,SSW,11.5,-,N/A,,Clear,210,2013-12-02 19:55:00
2:15 PM,76.6,65.3,68,29.77,10.0,SSW,11.5,-,N/A,,Clear,200,2013-12-02 20:15:00
2:35 PM,76.8,65.3,67,29.76,10.0,SW,12.7,-,N/A,,Clear,220,2013-12-02 20:35:00
2:55 PM,76.6,65.1,67,29.75,10.0,SSW,12.7,-,N/A,,Clear,210,2013-12-02 20:55:00
3:15 PM,76.1,65.1,69,29.75,10.0,SSW,10.4,-,N/A,,Clear,210,2013-12-02 21:15:00
3:35 PM,75.7,65.1,69,29.75,10.0,SSW,10.4,16.1,N/A,,Clear,210,2013-12-02 21:35:00
3:55 PM,75.4,64.8,69,29.74,10.0,SSW,12.7,-,N/A,,Clear,210,2013-12-02 21:55:00
4:15 PM,74.5,64.6,71,29.74,10.0,South,8.1,-,N/A,,Clear,180,2013-12-02 22:15:00
4:35 PM,72.7,65.1,77,29.74,10.0,South,8.1,-,N/A,,Clear,180,2013-12-02 22:35:00
4:55 PM,71.2,64.4,79,29.73,10.0,South,10.4,-,N/A,,Clear,190,2013-12-02 22:55:00
5:15 PM,69.6,63.9,82,29.74,10.0,South,9.2,-,N/A,,Clear,180,2013-12-02 23:15:00
5:35 PM,67.6,63.3,86,29.74,10.0,South,6.9,-,N/A,,Clear,190,2013-12-02 23:35:00
5:55 PM,65.8,62.8,90,29.74,10.0,South,5.8,-,N/A,,Clear,180,2013-12-02 23:55:00
6:15 PM,64.4,62.1,92,29.74,10.0,South,5.8,-,N/A,,Clear,190,2013-12-03 00:15:00
6:35 PM,63.5,61.7,94,29.74,10.0,South,4.6,-,N/A,,Clear,180,2013-12-03 00:35:00
6:55 PM,62.2,60.8,95,29.75,10.0,South,4.6,-,N/A,,Clear,190,2013-12-03 00:55:00
7:15 PM,61.9,60.8,96,29.75,7.0,SSW,6.9,-,N/A,,Clear,200,2013-12-03 01:15:00
7:35 PM,63.3,62.2,96,29.75,10.0,SSW,6.9,-,N/A,,Clear,200,2013-12-03 01:35:00
7:55 PM,63.9,62.6,96,29.75,7.0,SSW,6.9,-,N/A,,Clear,200,2013-12-03 01:55:00
8:15 PM,64.0,63.0,96,29.75,7.0,South,8.1,-,N/A,,Clear,190,2013-12-03 02:15:00
8:35 PM,64.6,63.7,97,29.75,7.0,South,8.1,-,N/A,,Clear,190,2013-12-03 02:35:00
8:55 PM,64.8,63.9,97,29.75,7.0,SSW,5.8,-,N/A,,Clear,210,2013-12-03 02:55:00
9:15 PM,64.8,63.7,96,29.76,5.0,SSW,4.6,-,N/A,,Clear,210,2013-12-03 03:15:00
9:35 PM,64.0,63.0,96,29.76,4.0,Calm,Calm,-,N/A,,Clear,0,2013-12-03 03:35:00
9:55 PM,63.3,62.6,97,29.76,5.0,South,5.8,-,N/A,,Clear,180,2013-12-03 03:55:00
10:15 PM,63.0,62.2,97,29.76,7.0,South,5.8,-,N/A,,Clear,190,2013-12-03 04:15:00
10:35 PM,63.5,62.6,97,29.76,7.0,South,5.8,-,N/A,,Clear,190,2013-12-03 04:35:00
10:55 PM,63.5,62.6,97,29.75,7.0,SSW,5.8,-,N/A,,Clear,200,2013-12-03 04:55:00
11:15 PM,64.2,63.0,96,29.74,10.0,SSW,6.9,-,N/A,,Clear,200,2013-12-03 05:15:00
11:35 PM,64.9,63.7,96,29.75,10.0,SSW,6.9,-,N/A,,Clear,210,2013-12-03 05:35:00
11:55 PM,65.8,64.0,94,29.74,7.0,SSW,6.9,-,N/A,,Clear,210,2013-12-03 05:55:00